Погода в Кальнике

Украина / Винницкая область     49°02′15″N   29°23′13″E
темп.,
°C
ветер,
м/с
пор.,
м/с
влажн.,
%
обл.,
%
осадки,
мм/ч
давл.,
гПа
погр.,
м
7 мая, пт
пт700:00+7юз116027 0.0 101410
03:00+6ююз226755 0.0 101511
06:00+6ююз3377100 0.0 101437
09:00+12ю5964100 0.0 1013446
12:00+15ю81262100 0.0 10111456
15:00+15ююз71175100 1.6 1009916
18:00+13ююз4990100 4.6 1007343
21:00+11ююв3395100 17.9 100888
8 мая, сб
сб800:00+10ююз3798100 1.2 1008213
03:00+10зюз3798100 1.4 1007215
06:00+9зсз5994100 2.1 1008378
09:00+6сз101491100 2.2 1012874
12:00+9зсз8117294 0.1 10141536
15:00+9сз10136490 0.2 10161580
18:00+9сз8136626 0.1 10171657
21:00+5сз36805 0.1 1020108
9 мая, вс
вс900:00+4зсз310885 0.0 1021254
03:00+2сз38945 0.0 1023192
06:00+2сз36930 0.0 1025128
09:00+8сз45665 0.0 1026619
12:00+12сз44505 0.0 10261644
15:00+13сз344475 0.0 10262132
18:00+13з235283 0.0 10261148
21:00+9юз116027 0.0 102810
10 мая, пн
пн1000:00+7ююз12613 0.0 102910
03:00+6ю22643 0.0 102910
06:00+5юв22715 0.0 102912
09:00+11юв34605 0.0 1030395
12:00+15ююв45486 0.0 10291526
15:00+16ююв33460 0.0 10271507
18:00+16юв33500 0.0 10271468
21:00+10в33700 0.0 102721
11 мая, вт
вт1100:00+8в38791 0.0 1028117
03:00+7в22770 0.0 102727
06:00+6всв22770 0.0 102722
09:00+12св46620 0.0 1026530
12:00+16всв56490 0.0 1024905
15:00+18св45545 0.0 10231060
18:00+17св56635 0.0 1022968
21:00+12св49865 0.0 1021149